Location: Unspecified
(0.0000°N, 0.0000°E)
Time: 20:43:57
(UTC+00:00)

Transit 2A - Pass Details

Date: 07 October 2020
Orbit: 592 x 966 km, 66.7° (Epoch: 20 October)

Event Time Altitude Azimuth Distance (km) Brightness Sun altitude
Rises 17:19:37 0° 313° (NW) 3,125 9.8 7.0°
Reaches altitude 10° 17:22:40 10° 296° (WNW) 2,135 9.5 6.2°
Maximum altitude 17:25:59 19° 252° (WSW) 1,578 9.5 5.4°
Drops below altitude 10° 17:29:08 10° 207° (SSW) 2,012 8.7 4.6°
Sets 17:31:55 0° 188° (S) 2,878 9.2 3.9°
